Tracking 31027 objects as of 19-Jul-2025
HD Live streaming from Space Station
objects crossing your sky now

THORAD DELTA 1 DEB

Track THORAD DELTA 1 DEB now!
10-day predictions


NORAD ID: 8174
Int'l Code: 1974-089AQ
Perigee: 1,407.2 km
Apogee: 1,507.7 km
Inclination: 101.9 °
Period: 114.9 minutes
Semi major axis: 7828 km
RCS: 0.0214 m2 (small)
Launch date: November 15, 1974
Source: United States (US)
Launch site: AIR FORCE WESTERN TEST RANGE (AFWTR)

Note: This is SATELLITE DEBRIS
Your satellite tracking list
STARLINK-3349
Track 1 satellite(s)




NASA's NSSDC Master Catalog

Two Line Element Set (TLE):
1  8174U 74089AQ  25199.73316998  .00000047  00000-0  57923-3 0  9990
2  8174 101.9188 182.8490 0064162 247.4731 286.3548 12.53401125316706
Source of the keplerian elements: AFSPC